Vorticity
10 18 16 12 6 19 25 10 3 5 13 13 17 29 53 48 19 10 4 2 3 6 4 1 17 2 -3 16 4 8 6 4 4 7 3 4 4 6 3 3 10 9 11 15 12 14 17 16 14 9 11 12 8 7
8 8 5 3 20 8 -2 10 17 21 29 41 25 31 51 49 18 11 6 4 2 2 -17 4 28 25 20 11 11 4 3 7 4 10 16 13 6 4 2 6 8 10 12 10 11 13 15 12 13 8 4 5 6 6
17 15 16 17 5 4 15 22 25 38 7 48 30 19 49 40 21 12 5 5 -1 6 46 14 -9 0 14 -1 15 1 12 7 3 13 22 5 8 4 4 3 7 5 7 6 6 6 5 4 4 5 4 3 3 3
14 13 13 18 18 20 21 28 12 8 15 -11 33 -9 38 44 23 11 3 5 -1 -1 -23 17 36 6 37 10 9 5 9 3 4 29 -2 13 9 3 4 4 4 3 2 2 3 5 4 3 2 2 2 2 2 2
-4 23 11 13 21 18 21 20 11 20 -15 4 2 31 41 39 23 11 -5 18 6 -40 -9 16 8 20 15 15 16 7 6 5 23 -0 -4 1 8 4 3 0 2 3 4 2 2 2 2 3 3 4 3 2 3 3
69 13 10 22 18 11 4 15 23 -0 6 13 30 41 37 29 19 10 -38 15 26 2 -3 -14 0 18 20 -5 -5 5 3 12 22 14 -6 -3 17 7 4 1 1 3 2 1 2 3 3 3 4 4 4 4 5 4
38 72 37 5 -1 11 10 1 8 22 18 32 37 37 35 23 7 26 -4 12 18 -18 15 25 8 9 21 30 -5 17 3 -14 5 8 2 12 5 7 7 5 3 0 1 1 -2 1 2 3 4 5 5 4 5 6
19 13 48 73 32 25 22 -1 1 11 45 39 24 35 26 23 -33 5 8 4 -5 7 9 31 10 70 17 -5 -5 19 -11 1 45 56 21 -12 3 1 4 7 6 2 -2 -2 -0 2 2 5 6 5 5 7 7 6
11 24 31 21 53 55 38 56 66 71 20 19 20 14 35 23 8 -12 19 14 -17 7 18 36 14 -4 23 14 20 3 32 18 -20 -8 12 4 2 10 12 9 8 8 8 7 6 5 9 7 6 8 8 6 6 9
13 11 41 66 63 67 68 58 29 16 14 25 -22 28 5 19 17 -31 -60 -21 -1 18 16 33 11 7 -34 -7 19 28 -0 19 25 28 17 15 7 9 10 7 7 7 9 12 13 10 5 8 8 6 8 8 9 10
16 3 -3 -2 9 2 3 -3 4 32 -10 -2 5 -9 41 -87 -26 -21 24 14 7 -2 -8 7 13 15 20 17 15 19 6 2 4 9 8 9 11 15 16 16 13 11 8 8 8 10 10 9 7 7 8 11 10 9
-6 20 17 0 16 10 9 -1 -14 5 -14 -10 -36 51 1 -21 21 46 -29 -32 -12 10 21 9 9 9 8 10 10 10 12 10 11 9 10 11 8 5 8 7 11 10 10 7 4 6 7 7 9 11 10 9 8 9
9 7 13 3 21 1 10 18 2 -7 10 14 12 -14 8 37 -10 -4 37 30 10 15 20 17 15 13 9 8 10 13 18 13 10 11 10 5 7 13 13 11 8 7 8 10 10 10 10 11 10 7 8 8 10 15
1 9 18 13 11 15 24 -6 2 -2 13 -27 -4 12 -22 -18 -17 11 0 1 4 9 22 23 26 9 7 7 17 17 16 15 15 16 13 11 18 21 14 10 11 13 14 12 12 12 9 6 6 8 13 17 14 1
14 -4 16 9 13 12 11 7 6 11 7 5 18 20 12 -17 37 14 -4 6 7 2 10 6 1 7 11 -0 -9 -3 5 5 2 10 13 8 13 14 13 11 10 11 9 8 6 6 6 10 20 18 13 2 1 8
9 5 34 15 5 3 9 12 9 3 -4 -4 1 20 2 -12 -8 -4 23 0 -1 32 15 23 27 18 13 15 21 18 9 9 8 6 10 11 8 8 9 7 5 4 6 8 5 15 18 18 13 2 1 7 14 2
14 8 8 3 15 18 20 17 13 0 6 5 11 9 -11 -7 4 -20 -14 10 -4 20 -0 14 8 12 15 7 6 7 10 17 17 11 8 7 2 -0 5 10 10 8 12 17 9 9 15 6 4 3 -2 -8 15 19
11 6 8 9 4 5 12 11 13 21 11 26 29 30 30 31 32 15 20 21 10 -12 5 6 9 8 13 9 3 0 -2 -2 5 11 5 -4 -0 6 6 8 14 9 6 8 14 9 7 0 -0 7 18 14 10 7
13 16 17 14 8 9 13 8 7 4 4 -0 8 13 7 0 2 20 11 3 5 6 7 6 14 -1 -5 5 13 11 12 11 6 5 -2 3 10 10 10 8 7 11 13 11 7 -0 10 15 15 10 7 6 6 7
5 4 7 10 12 14 15 13 11 9 9 6 7 6 5 4 9 15 19 17 12 6 12 15 14 15 17 17 14 8 7 7 6 7 9 8 7 11 12 12 10 6 5 12 19 13 12 8 6 6 6 6 8 8
15 10 14 11 7 8 8 2 5 5 12 6 1 7 8 6 0 4 7 4 4 4 5 8 8 5 4 3 5 6 6 8 9 9 13 17 13 8 10 15 25 18 14 7 5 6 5 7 8 9 10 8 13 19
17 19 20 26 17 20 16 13 16 18 22 14 14 10 5 8 8 11 11 13 13 10 9 7 6 4 7 7 9 12 9 15 10 8 11 14 19 14 9 4 6 4 4 5 7 8 10 11 16 13 17 22 22 14
20 24 18 20 14 22 10 29 19 13 18 17 21 21 23 24 25 23 19 13 14 14 17 20 24 26 25 26 26 24 21 23 17 11 7 5 4 5 7 8 10 11 14 15 16 13 19 12 15 24 18 12 7 4
4 2 5 6 9 8 5 1 13 21 9 4 13 14 14 20 14 9 5 7 7 9 10 10 11 10 9 8 7 7 6 7 7 7 8 10 12 14 17 18 21 22 21 20 19 18 18 14 8 5 4 4 5 7
4 -1 3 1 -2 -4 6 6 10 -4 30 22 9 -7 11 32 18 14 14 15 15 13 11 11 13 13 14 16 16 17 18 19 22 23 23 21 20 19 16 12 11 9 8 5 4 7 7 7 7 7 7 7 7 7
1 0 -0 1 4 7 7 12 7 2 2 6 20 18 23 21 24 21 21 23 24 24 24 24 22 23 22 19 17 15 13 12 10 9 9 8 6 4 4 5 6 6 7 8 9 9 8 8 7 7 8 9 10 9
5 9 3 9 6 12 8 3 9 8 7 19 22 22 16 12 10 9 9 7 6 5 5 6 7 7 8 9 9 9 10 10 11 11 11 12 11 11 12 12 12 11 11 11 10 8 9 10 10 10 9 10 11 8
7 10 10 3 -0 21 13 4 7 14 16 14 12 7 7 6 7 10 12 13 14 15 14 14 14 13 14 15 13 12 13 13 12 11 10 10 10 10 11 12 13 13 14 15 16 16 14 13 11 9 6 4 4 5
11 11 12 8 22 10 9 15 15 13 8 8 8 10 13 14 12 12 11 11 12 11 11 10 10 9 7 7 9 11 12 13 14 15 16 17 19 19 18 15 13 11 9 7 5 4 4 5 6 6 6 6 8 14
14 17 21 13 8 10 7 8 8 9 10 10 12 17 18 16 14 13 14 15 15 16 17 17 16 16 18 19 18 18 17 16 15 13 11 10 9 8 8 8 8 8 8 7 6 6 7 9 12 16 18 20 22 23
14 10 8 6 8 9 9 10 15 22 17 18 20 22 22 22 23 23 23 22 20 20 19 18 17 15 14 13 12 12 11 11 9 8 7 6 5 6 6 7 9 12 14 16 18 19 20 21 21 21 20 19 18 17
8 9 12 9 10 16 21 18 11 13 19 25 25 22 20 19 17 18 18 17 15 13 11 11 11 10 10 10 9 9 8 8 9 10 12 13 16 18 20 23 24 25 25 26 27 27 28 28 27 27 27 25 25 24
6 5 11 17 17 15 13 12 13 14 24 26 18 15 15 14 12 12 11 10 10 9 9 8 8 9 11 12 14 16 17 18 21 25 29 31 31 30 29 29 29 29 29 28 28 27 26 25 24 24 23 22 21 20
Height
5272 5280 5289 5298 5307 5314 5323 5331 5337 5341 5346 5352 5359 5368 5382 5407 5436 5460 5485 5502 5522 5540 5554 5564 5574 5592 5603 5613 5619 5629 5639 5643 5650 5657 5662 5666 5673 5679 5683 5685 5685 5686 5687 5688 5688 5688 5689 5691 5692 5694 5696 5696 5697 5696
5279 5285 5292 5299 5305 5314 5322 5328 5333 5338 5341 5346 5355 5365 5382 5406 5433 5457 5479 5502 5521 5539 5553 5562 5571 5587 5595 5608 5616 5623 5634 5641 5647 5652 5657 5662 5668 5672 5677 5679 5679 5681 5683 5682 5683 5683 5683 5685 5688 5690 5691 5690 5689 5688
5281 5286 5292 5298 5306 5314 5320 5327 5333 5335 5341 5347 5357 5367 5384 5406 5432 5458 5480 5502 5524 5540 5556 5563 5572 5581 5592 5602 5608 5618 5627 5635 5639 5646 5650 5654 5662 5667 5670 5674 5675 5675 5677 5678 5678 5679 5679 5681 5682 5683 5683 5682 5681 5679
5282 5287 5293 5299 5306 5314 5322 5328 5332 5339 5347 5357 5367 5380 5390 5411 5437 5462 5481 5501 5519 5537 5544 5557 5567 5578 5587 5597 5602 5611 5623 5631 5634 5638 5643 5649 5655 5660 5664 5666 5668 5671 5671 5672 5673 5674 5673 5673 5674 5674 5674 5673 5671 5669
5285 5290 5296 5301 5307 5315 5324 5331 5337 5345 5353 5362 5372 5382 5395 5416 5440 5464 5486 5505 5517 5532 5547 5556 5565 5574 5581 5590 5598 5605 5613 5621 5628 5633 5636 5641 5647 5652 5655 5657 5660 5663 5665 5666 5667 5666 5666 5665 5664 5664 5662 5661 5659 5657
5286 5292 5297 5302 5309 5317 5325 5333 5341 5350 5360 5368 5376 5386 5403 5426 5450 5473 5492 5508 5520 5542 5550 5556 5562 5570 5576 5583 5593 5597 5607 5615 5621 5626 5630 5633 5639 5643 5646 5649 5654 5656 5657 5658 5659 5659 5657 5657 5656 5654 5652 5650 5648 5645
5295 5293 5297 5303 5311 5319 5327 5336 5345 5354 5363 5371 5381 5396 5417 5441 5467 5490 5505 5521 5533 5544 5550 5555 5561 5567 5573 5581 5589 5582 5600 5606 5611 5615 5619 5626 5629 5633 5637 5642 5646 5647 5649 5650 5651 5650 5649 5648 5646 5644 5642 5639 5636 5633
5314 5307 5304 5305 5311 5320 5329 5340 5349 5359 5368 5378 5393 5413 5434 5458 5477 5495 5513 5523 5531 5541 5545 5551 5557 5557 5563 5577 5583 5589 5595 5600 5599 5602 5612 5618 5622 5625 5628 5632 5635 5637 5639 5640 5641 5640 5638 5637 5635 5633 5630 5627 5624 5620
5337 5330 5322 5317 5319 5323 5332 5342 5354 5366 5376 5391 5411 5434 5456 5475 5494 5506 5520 5528 5531 5536 5542 5547 5552 5556 5566 5573 5580 5586 5588 5593 5597 5598 5605 5612 5614 5615 5619 5623 5626 5626 5627 5628 5628 5627 5626 5624 5622 5620 5617 5614 5611 5607
5363 5357 5354 5349 5344 5345 5351 5361 5375 5387 5401 5422 5441 5454 5470 5488 5500 5509 5516 5523 5530 5533 5538 5541 5549 5556 5563 5569 5575 5582 5585 5587 5591 5595 5598 5602 5604 5607 5610 5612 5614 5615 5615 5616 5615 5614 5613 5611 5609 5606 5603 5600 5597 5593
5390 5389 5386 5385 5388 5388 5389 5396 5406 5417 5429 5445 5460 5473 5481 5490 5500 5509 5515 5521 5527 5533 5540 5545 5550 5556 5562 5566 5571 5577 5579 5582 5585 5589 5590 5592 5595 5598 5599 5601 5603 5603 5603 5603 5602 5601 5600 5598 5595 5593 5590 5586 5582 5578
5412 5413 5415 5416 5419 5423 5428 5433 5437 5445 5453 5466 5476 5486 5494 5497 5504 5510 5517 5522 5529 5535 5540 5544 5548 5553 5556 5560 5562 5566 5569 5573 5575 5579 5579 5581 5586 5587 5590 5591 5591 5591 5591 5591 5591 5588 5586 5583 5582 5579 5576 5572 5568 5564
5430 5432 5434 5437 5442 5445 5450 5456 5460 5466 5470 5477 5486 5492 5497 5506 5510 5515 5518 5523 5529 5533 5536 5539 5542 5546 5549 5553 5557 5561 5562 5565 5568 5569 5571 5575 5577 5579 5580 5580 5580 5580 5579 5578 5576 5574 5572 5570 5567 5564 5561 5557 5553 5548
5443 5446 5448 5451 5457 5462 5465 5468 5472 5477 5482 5484 5491 5497 5502 5508 5512 5517 5521 5525 5529 5531 5534 5538 5541 5545 5549 5550 5553 5555 5557 5560 5561 5563 5566 5567 5568 5568 5569 5569 5568 5567 5565 5564 5563 5562 5559 5556 5553 5549 5545 5542 5538 5534
5456 5459 5461 5464 5467 5472 5477 5481 5484 5487 5490 5494 5497 5501 5504 5508 5511 5516 5519 5524 5526 5528 5529 5535 5539 5540 5542 5544 5547 5550 5552 5553 5555 5557 5558 5558 5558 5557 5557 5557 5555 5555 5554 5552 5550 5547 5545 5541 5537 5534 5531 5527 5523 5518
5465 5467 5469 5472 5476 5479 5482 5487 5491 5493 5494 5498 5500 5502 5506 5509 5512 5515 5518 5521 5524 5526 5529 5530 5532 5534 5536 5539 5541 5542 5545 5546 5547 5547 5548 5548 5548 5547 5547 5546 5544 5542 5540 5538 5535 5533 5529 5526 5523 5520 5516 5512 5507 5503
5470 5472 5475 5478 5482 5484 5486 5489 5491 5493 5496 5498 5501 5504 5507 5509 5511 5512 5515 5518 5521 5523 5526 5528 5529 5530 5531 5533 5534 5535 5536 5537 5537 5538 5538 5537 5537 5536 5534 5533 5530 5528 5526 5523 5521 5518 5515 5511 5508 5505 5501 5497 5491 5486
5472 5475 5477 5480 5483 5486 5488 5490 5492 5495 5497 5498 5499 5502 5505 5506 5508 5511 5512 5514 5516 5518 5520 5522 5523 5523 5524 5525 5526 5526 5527 5527 5527 5527 5526 5525 5523 5522 5520 5518 5516 5514 5512 5509 5506 5503 5500 5496 5492 5488 5484 5479 5474 5470
5474 5477 5479 5481 5483 5486 5488 5489 5492 5493 5496 5498 5500 5502 5503 5504 5506 5507 5508 5509 5510 5512 5514 5514 5515 5515 5516 5516 5516 5516 5516 5516 5515 5513 5513 5512 5510 5509 5507 5505 5503 5500 5497 5494 5491 5488 5483 5478 5474 5471 5468 5463 5458 5452
5475 5477 5479 5481 5483 5484 5487 5488 5490 5491 5492 5494 5495 5496 5498 5499 5500 5501 5502 5503 5504 5505 5505 5506 5506 5507 5506 5506 5506 5505 5504 5502 5501 5501 5499 5498 5496 5495 5493 5490 5487 5484 5481 5478 5474 5470 5466 5462 5458 5453 5449 5445 5440 5434
5474 5475 5478 5480 5481 5483 5485 5486 5488 5488 5489 5490 5491 5491 5492 5493 5493 5493 5494 5494 5495 5495 5495 5495 5495 5495 5494 5494 5493 5492 5491 5489 5487 5486 5485 5484 5482 5479 5477 5474 5470 5467 5464 5461 5457 5453 5449 5444 5440 5434 5428 5424 5419 5413
5473 5473 5475 5476 5477 5479 5481 5482 5483 5483 5484 5484 5484 5484 5483 5483 5483 5483 5483 5484 5483 5484 5484 5483 5483 5482 5481 5480 5479 5478 5477 5475 5473 5472 5470 5468 5465 5462 5460 5457 5454 5451 5448 5444 5440 5435 5430 5425 5420 5415 5409 5405 5401 5396
5475 5475 5476 5477 5477 5477 5478 5479 5479 5479 5479 5478 5478 5477 5476 5475 5474 5473 5472 5472 5471 5470 5469 5469 5468 5468 5467 5465 5464 5462 5461 5460 5458 5457 5455 5453 5450 5448 5445 5442 5438 5435 5431 5426 5422 5417 5413 5409 5404 5399 5395 5390 5385 5381
5476 5476 5476 5477 5477 5477 5477 5477 5476 5475 5474 5473 5472 5470 5469 5468 5466 5465 5463 5462 5461 5460 5459 5457 5457 5456 5455 5453 5451 5450 5448 5446 5444 5442 5439 5437 5434 5431 5428 5424 5420 5417 5413 5409 5405 5401 5397 5393 5388 5384 5379 5375 5370 5365
5475 5475 5475 5474 5474 5473 5473 5472 5470 5469 5467 5465 5463 5461 5459 5457 5454 5452 5451 5449 5448 5447 5446 5444 5442 5441 5440 5438 5436 5434 5433 5431 5428 5426 5423 5420 5418 5415 5412 5409 5405 5402 5398 5394 5391 5386 5382 5377 5372 5367 5362 5358 5353 5347
5471 5470 5471 5469 5468 5467 5466 5464 5462 5460 5457 5455 5452 5449 5446 5443 5441 5439 5438 5437 5435 5434 5432 5430 5429 5428 5426 5424 5422 5420 5418 5416 5414 5412 5409 5406 5404 5400 5397 5394 5390 5386 5382 5378 5373 5369 5364 5360 5355 5349 5344 5339 5334 5329
5465 5464 5463 5462 5460 5458 5456 5454 5452 5450 5447 5444 5440 5438 5436 5434 5432 5431 5429 5427 5425 5423 5422 5420 5417 5415 5414 5412 5409 5407 5405 5402 5400 5397 5393 5391 5388 5385 5381 5377 5373 5368 5364 5359 5354 5350 5345 5340 5335 5330 5324 5319 5314 5309
5458 5457 5455 5454 5451 5450 5447 5445 5443 5440 5437 5434 5432 5429 5427 5425 5423 5420 5418 5415 5413 5411 5409 5407 5404 5402 5400 5398 5395 5392 5390 5388 5384 5381 5377 5374 5370 5366 5363 5358 5354 5350 5345 5340 5335 5329 5324 5319 5314 5308 5303 5298 5292 5286
5450 5449 5447 5445 5443 5440 5438 5436 5433 5430 5428 5425 5422 5419 5417 5414 5411 5408 5405 5403 5401 5398 5396 5394 5391 5389 5387 5384 5381 5378 5375 5372 5370 5366 5362 5358 5353 5349 5345 5340 5335 5331 5326 5320 5315 5310 5305 5299 5293 5287 5281 5275 5269 5261
5442 5440 5438 5436 5434 5432 5430 5427 5423 5420 5416 5413 5410 5406 5403 5400 5397 5395 5392 5390 5388 5385 5383 5382 5380 5377 5373 5370 5367 5364 5361 5358 5355 5351 5347 5343 5339 5334 5329 5324 5319 5312 5306 5300 5294 5287 5280 5274 5268 5262 5255 5249 5244 5238
5434 5432 5430 5428 5425 5423 5420 5416 5412 5408 5404 5400 5396 5393 5390 5387 5385 5382 5380 5379 5376 5373 5372 5370 5367 5365 5362 5359 5355 5351 5348 5344 5340 5336 5331 5326 5321 5316 5310 5304 5297 5290 5283 5276 5269 5263 5256 5249 5242 5237 5231 5225 5220 5216
5427 5425 5423 5420 5416 5413 5409 5406 5402 5399 5394 5389 5385 5382 5379 5378 5376 5373 5371 5369 5367 5365 5362 5360 5357 5354 5351 5347 5344 5340 5336 5332 5327 5322 5316 5309 5303 5296 5289 5281 5274 5267 5259 5252 5245 5239 5233 5226 5220 5214 5209 5203 5199 5195
5420 5417 5414 5411 5407 5404 5400 5397 5393 5388 5384 5379 5377 5375 5372 5370 5368 5366 5363 5361 5358 5356 5353 5350 5347 5343 5339 5335 5332 5327 5322 5318 5312 5307 5301 5294 5287 5279 5271 5264 5256 5248 5240 5233 5226 5220 5213 5207 5201 5195 5190 5185 5181 5178